Weather History for Canby, MN

Change the Weather History Date:

Tuesday, April 22, 2014

  Actual Average (KMML) Record (KMML)
Temperature  
Mean Temperature 48 °F -  
Max Temperature 64 °F 58 °F 88 °F (1990)
Min Temperature 33 °F 37 °F 23 °F (1967)
Degree Days  
Heating Degree Days 16    
Moisture  
Dew Point 33 °F    
Average Humidity 57    
Maximum Humidity 92    
Minimum Humidity 29    
Precipitation  
Precipitation 0.00 in - - ()
Sea Level Pressure  
Sea Level Pressure 30.09 in    
Wind  
Wind Speed 5 mph (SE)    
Max Wind Speed 17 mph    
Max Gust Speed 21 mph    
Visibility 10 miles    
Events      
Averages and records for this station are not official NWS values.
T = Trace of Precipitation, MM = Missing Value Source: NWS Daily Summary

Daily Weather History Graph

Daily Weather History Graph

Search for Another Location

Airport:

Trip Planner

Search our weather history database for the weather conditions in past years. The results will help you decide how hot, cold, wet, or windy it might be!

Date:

Astronomy

Apr. 22, 2014 Rise Set
Actual Time 6:28 AM CDT 8:18 PM CDT
Civil Twilight 5:57 AM CDT 8:50 PM CDT
Nautical Twilight 5:19 AM CDT 9:28 PM CDT
Astronomical Twilight 4:38 AM CDT 10:10 PM CDT
Moon 2:36 AM CDT (4/22) 1:04 PM CDT (4/22)
Length of Visible Light 14h 52m
Length of Day
13h 50m
Last Quarter, 46% of the Moon is Illuminated
Apr 22
Last Quarter
Apr 29
New
May 6
First Quarter
May 14
Full
May 21
Last Quarter

Hourly Weather History & Observations

Time (CDT) Temp. Windchill Dew Point Humidity Pressure Visibility Wind Dir Wind Speed Gust Speed Precip Events Conditions
12:14 AM 36.9 °F 33.1 °F 32.0 °F 83% 30.16 in 10.0 mi WSW 4.6 mph - N/A   Clear
12:34 AM 36.7 °F 34.1 °F 32.0 °F 83% 30.16 in 10.0 mi WSW 3.5 mph - N/A   Clear
12:54 AM 36.0 °F 33.3 °F 31.8 °F 85% 30.16 in 10.0 mi WSW 3.5 mph - N/A   Clear
1:15 AM 34.9 °F 32.0 °F 31.3 °F 87% 30.16 in 10.0 mi WSW 3.5 mph - N/A   Clear
1:34 AM 34.9 °F 32.0 °F 31.6 °F 88% 30.16 in 10.0 mi SW 3.5 mph - N/A   Clear
1:54 AM 34.0 °F - 31.1 °F 89% 30.15 in 10.0 mi Calm Calm - N/A   Clear
2:14 AM 33.8 °F 30.8 °F 30.7 °F 89% 30.16 in 10.0 mi WSW 3.5 mph - N/A   Clear
2:34 AM 33.4 °F 30.4 °F 30.6 °F 89% 30.16 in 10.0 mi WSW 3.5 mph - N/A   Clear
2:54 AM 33.4 °F - 30.6 °F 89% 30.15 in 10.0 mi Calm Calm - N/A   Clear
3:14 AM 33.3 °F 28.9 °F 31.1 °F 92% 30.15 in 10.0 mi SW 4.6 mph - N/A   Clear
3:34 AM 33.1 °F 28.7 °F 30.4 °F 90% 30.15 in 10.0 mi WSW 4.6 mph - N/A   Clear
3:54 AM 34.3 °F 29.2 °F 31.1 °F 88% 30.15 in 10.0 mi SW 5.8 mph - N/A   Clear
4:14 AM 35.6 °F 29.9 °F 31.3 °F 84% 30.15 in 10.0 mi WSW 6.9 mph - N/A   Clear
4:34 AM 35.8 °F 31.9 °F 31.5 °F 84% 30.16 in 10.0 mi SW 4.6 mph - N/A   Clear
5:14 AM 35.6 °F 31.7 °F 31.1 °F 84% 30.16 in 10.0 mi WSW 4.6 mph - N/A   Clear
5:34 AM 34.3 °F 31.4 °F 30.2 °F 85% 30.15 in 10.0 mi WSW 3.5 mph - N/A   Clear
5:54 AM 34.9 °F 32.0 °F 30.0 °F 82% 30.15 in 10.0 mi SW 3.5 mph - N/A   Clear
6:15 AM 34.2 °F 29.0 °F 30.4 °F 86% 30.15 in 10.0 mi WSW 5.8 mph - N/A   Clear
6:34 AM 35.1 °F 29.3 °F 30.2 °F 82% 30.16 in 10.0 mi SW 6.9 mph - N/A   Clear
6:54 AM 36.3 °F 32.5 °F 30.6 °F 80% 30.16 in 10.0 mi WSW 4.6 mph - N/A   Clear
7:15 AM 36.9 °F 34.3 °F 30.9 °F 79% 30.16 in 10.0 mi SW 3.5 mph - N/A   Clear
7:34 AM 37.9 °F - 32.2 °F 80% 30.16 in 10.0 mi Calm Calm - N/A   Clear
7:54 AM 40.1 °F - 33.4 °F 77% 30.16 in 10.0 mi Calm Calm - N/A   Clear
8:14 AM 42.6 °F - 36.5 °F 79% 30.16 in 10.0 mi Calm Calm - N/A   Clear
8:34 AM 42.6 °F - 35.8 °F 77% 30.16 in 10.0 mi Calm Calm - N/A   Clear
8:54 AM 44.6 °F - 36.3 °F 73% 30.15 in 10.0 mi Calm Calm - N/A   Clear
9:14 AM 47.5 °F - 37.4 °F 68% 30.16 in 10.0 mi Calm Calm - N/A   Clear
9:34 AM 49.5 °F - 36.7 °F 61% 30.16 in 10.0 mi Calm Calm - N/A   Clear
9:54 AM 51.4 °F - 35.4 °F 54% 30.16 in 10.0 mi ENE 4.6 mph - N/A   Clear
10:14 AM 52.7 °F - 32.4 °F 46% 30.15 in 10.0 mi Calm Calm - N/A   Clear
10:34 AM 54.1 °F - 33.3 °F 45% 30.16 in 10.0 mi East 3.5 mph - N/A   Clear
10:54 AM 55.4 °F - 33.1 °F 43% 30.15 in 10.0 mi ENE 3.5 mph - N/A   Clear
11:14 AM 55.8 °F - 32.0 °F 41% 30.14 in 10.0 mi Calm Calm - N/A   Clear
11:34 AM 56.7 °F - 31.8 °F 39% 30.14 in 10.0 mi Calm Calm - N/A   Clear
11:54 AM 58.1 °F - 31.3 °F 36% 30.14 in 10.0 mi Calm Calm - N/A   Clear
12:14 PM 58.6 °F - 31.6 °F 36% 30.13 in 10.0 mi East 3.5 mph - N/A   Clear
12:34 PM 57.9 °F - 31.1 °F 36% 30.12 in 10.0 mi Calm Calm - N/A   Clear
12:54 PM 58.8 °F - 31.6 °F 36% 30.10 in 10.0 mi NNE 6.9 mph - N/A   Clear
1:14 PM 59.0 °F - 30.7 °F 34% 30.09 in 10.0 mi SE 3.5 mph - N/A   Clear
1:34 PM 59.9 °F - 32.2 °F 35% 30.08 in 10.0 mi ENE 4.6 mph - N/A   Clear
1:54 PM 60.6 °F - 31.5 °F 33% 30.08 in 10.0 mi ESE 4.6 mph - N/A   Clear
2:14 PM 61.0 °F - 32.0 °F 34% 30.07 in 10.0 mi ESE 3.5 mph - N/A   Clear
2:34 PM 62.1 °F - 32.2 °F 33% 30.06 in 10.0 mi ENE 4.6 mph - N/A   Clear
2:54 PM 62.4 °F - 31.6 °F 31% 30.06 in 10.0 mi SSE 4.6 mph - N/A   Clear
3:14 PM 62.6 °F - 31.3 °F 31% 30.05 in 10.0 mi SSE 6.9 mph - N/A   Clear
3:35 PM 61.9 °F - 31.6 °F 32% 30.03 in 10.0 mi East 8.1 mph - N/A   Clear
3:54 PM 64.4 °F - 31.5 °F 29% 30.02 in 10.0 mi East 9.2 mph - N/A   Clear
4:14 PM 63.9 °F - 31.6 °F 30% 30.02 in 10.0 mi ESE 8.1 mph - N/A   Clear
4:34 PM 63.3 °F - 31.5 °F 30% 30.02 in 10.0 mi SE 3.5 mph 10.4 mph N/A   Clear
4:54 PM 62.8 °F - 31.8 °F 31% 30.00 in 10.0 mi East 9.2 mph - N/A   Clear
5:14 PM 63.7 °F - 32.2 °F 31% 30.00 in 10.0 mi ESE 9.2 mph - N/A   Scattered Clouds
5:34 PM 63.1 °F - 32.0 °F 31% 29.99 in 10.0 mi ESE 9.2 mph - N/A   Mostly Cloudy
5:54 PM 62.8 °F - 32.0 °F 32% 30.00 in 10.0 mi ESE 11.5 mph - N/A   Mostly Cloudy
6:14 PM 62.4 °F - 32.7 °F 33% 29.99 in 10.0 mi ESE 9.2 mph - N/A   Mostly Cloudy
6:34 PM 61.9 °F - 32.5 °F 33% 29.99 in 10.0 mi ESE 12.7 mph - N/A   Overcast
6:54 PM 61.7 °F - 33.1 °F 34% 29.99 in 10.0 mi ESE 9.2 mph - N/A   Overcast
7:14 PM 61.0 °F - 32.7 °F 35% 29.98 in 10.0 mi ESE 10.4 mph - N/A   Overcast
7:34 PM 60.3 °F - 33.8 °F 37% 29.98 in 10.0 mi ESE 9.2 mph - N/A   Overcast
7:54 PM 59.0 °F - 35.6 °F 42% 29.97 in 10.0 mi East 12.7 mph - N/A   Overcast
8:14 PM 56.7 °F - 37.4 °F 49% 29.97 in 10.0 mi East 16.1 mph - N/A   Mostly Cloudy
8:34 PM 55.6 °F - 37.4 °F 50% 29.98 in 10.0 mi East 12.7 mph - N/A   Scattered Clouds
8:54 PM 55.2 °F - 36.9 °F 50% 29.98 in 10.0 mi ESE 13.8 mph - N/A   Clear
9:14 PM 54.7 °F - 36.9 °F 51% 29.99 in 10.0 mi ESE 10.4 mph - N/A   Scattered Clouds
9:34 PM 54.1 °F - 37.4 °F 53% 30.00 in 10.0 mi ESE 9.2 mph - N/A   Mostly Cloudy
9:54 PM 53.6 °F - 37.6 °F 55% 30.01 in 10.0 mi ESE 10.4 mph 17.3 mph N/A   Clear
10:15 PM 52.9 °F - 37.6 °F 56% 30.01 in 10.0 mi ESE 10.4 mph - N/A   Scattered Clouds
10:34 PM 52.7 °F - 37.2 °F 56% 30.01 in 10.0 mi ESE 10.4 mph 17.3 mph N/A   Mostly Cloudy
10:54 PM 52.7 °F - 36.5 °F 54% 30.01 in 10.0 mi ESE 9.2 mph - N/A   Overcast
11:14 PM 52.3 °F - 36.0 °F 54% 29.99 in 10.0 mi ESE 10.4 mph - N/A   Overcast
11:34 PM 52.3 °F - 35.1 °F 52% 29.99 in 10.0 mi ESE 15.0 mph - N/A   Overcast
11:54 PM 52.2 °F - 34.7 °F 51% 29.98 in 10.0 mi SE 17.3 mph 20.7 mph N/A   Mostly Cloudy